Flag for Switzerland Weather past 2 weeks in Biel, Switzerland

Now
55 °F

Cool.


Feels Like: 55 °F
Forecast: 44 / 70 °F
Wind: 2 mph from South

Location: Grenchen

Current Time: Jul 30, 2015 at 12:15:35 AM

Latest Report: Jul 29, 2015 at 11:00 PM


Visibility: N/A

Pressure: 30.02 "Hg

Humidity: 83%

Dew point: 49 °F

Location of BielLocation

Historic Weather in Biel — Graph

°F

Biel temperature yesterday

Maximum temperature yesterday: 66 °F (at 5:00 PM)
Minimum temperature yesterday: 57 °F (at 11:00 AM)
Average temperature yesterday: 60 °F

Past Weeks' High & Low Weather Summary

 TemperatureHumidityPressure
High94 °F (Jul 16, 6:00 PM)97% (Jul 19, 4:00 AM)30.20 "Hg (Jul 19, 4:00 AM)
Low51 °F (Jul 26, 7:00 AM)19% (Jul 16, 6:00 PM)29.64 "Hg (Jul 24, 7:00 PM)
Average72 °F63%29.95 "Hg
* Reported Jul 14 10:00 PM — Jul 29 10:00 PM, Biel, Weather by CustomWeather, © 2015

Note: Actual official high and low records may vary slightly from our data, if they occured in-between our weather recording intervals... More about our weather records

Advertising

Biel weather history for previous 24 hours

 ConditionsComfort  
Time TempWeatherWind HumidityBarometerVisibility
10:00 PM
Wed, Jul 29
59 °FCool.3 mph67%29.99 "HgN/A
9:00 PM61 °FCool.7 mph65%29.97 "HgN/A
8:00 PM61 °FCool.6 mph69%29.95 "HgN/A
7:00 PM62 °FCool.10 mph69%29.93 "HgN/A
6:00 PM64 °FMild.13 mph71%29.91 "HgN/A
5:00 PM66 °FMild.13 mph69%29.89 "HgN/A
4:00 PM65 °FMild.10 mph85%29.87 "HgN/A
3:00 PM63 °FMild.5 mph91%29.87 "HgN/A
2:00 PM62 °FCool.5 mph91%29.87 "HgN/A
1:00 PM60 °FCool.1 mph89%29.88 "HgN/A
12:00 PM58 °FCool.2 mph93%29.89 "HgN/A
11:00 AM57 °FCool.3 mph92%29.90 "HgN/A
10:00 AM58 °FCool.1 mph86%29.88 "HgN/A
9:00 AM60 °FCool.2 mph77%29.87 "HgN/A
8:00 AM60 °FCool.2 mph76%29.87 "HgN/A
7:00 AM58 °FCool.1 mph84%29.89 "HgN/A
6:00 AM58 °FCool.2 mph82%29.92 "HgN/A
5:00 AM59 °FCool.3 mph78%29.92 "HgN/A
4:00 AM59 °FCool.6 mph77%29.92 "HgN/A
3:00 AM61 °FCool.2 mph67%29.92 "HgN/A
2:00 AM62 °FCool.2 mph61%29.92 "HgN/A
1:00 AM60 °FCool.2 mph71%29.93 "HgN/A
12:00 AM60 °FCool.2 mph73%29.95 "HgN/A
Weather by CustomWeather, © 2015

See weather overviewHow to use our weather pages